Simultaneous Nadir Overpasses (SNOs) Predictions

Prediction of SNOs between AQUA and METOP-A Satellite Orbit:

Table of predicted SNOs for the next 14.0 days since TLE Epoch: 2/2/2013
Index Date (AQUA) Time (AQUA) Lat,Lon (AQUA) SZA (AQUA ) Date (METOP-A) Time (METOP-A) Lat,Lon (METOP-A) SZA (METOP-A ) Distance(km) Time Diff (sec)
1 02/04/2013 00:59:31 -73.86, -20.77 89.81 02/04/2013 00:58:52 -73.84, -20.88 89.81 3.76 39
2 02/04/2013 01:49:00 73.94, 146.68 90.28 02/04/2013 01:49:30 73.93, 146.65 90.27 1.40 30
3 02/06/2013 20:33:45 -73.89, 45.61 90.63 02/06/2013 20:33:11 -73.86, 45.57 90.65 3.24 34
4 02/06/2013 21:23:13 73.93,-146.84 89.40 02/06/2013 21:23:49 73.94,-146.91 89.42 2.82 36
5 02/09/2013 16:07:56 -73.88, 112.09 91.54 02/09/2013 16:07:28 -73.90, 112.07 91.51 2.62 28
6 02/09/2013 16:57:25 73.97, -80.48 88.56 02/09/2013 16:58:06 73.97, -80.42 88.55 1.78 41
7 02/12/2013 11:42:08 -73.92, 178.45 92.41 02/12/2013 11:41:46 -73.90, 178.50 92.43 2.45 22
8 02/12/2013 12:31:36 73.97, -14.02 87.63 02/12/2013 12:32:24 73.97, -14.00 87.63 0.63 48
9 02/15/2013 06:26:41 73.34, 78.52 86.02 02/15/2013 06:25:34 73.27, 76.13 86.08 76.64 67
10 02/15/2013 07:16:18 -73.92,-115.09 93.37 02/15/2013 07:16:03 -73.93,-115.02 93.36 2.23 15
11 02/15/2013 08:05:46 73.97, 52.43 86.68 02/15/2013 08:06:41 73.99, 52.46 86.69 2.36 55




NCC Satellite Simultaneous Nadir Overpasses (SNOs) Prediction Service
